| time (UTC) | temp C | wind direction | speed KPH | gust KPH | rain 1hr cm | rain 24hr cm | rain mn cm | humidity % | barometer mb |
| 20260510071533 | 17 | 109 | 0.0 | 0.0 | 0.00 | 0.05 | 0.00 | 90 | 1008.4 |
| 20260510071036 | 17 | 109 | 0.0 | 0.0 | 0.00 | 0.05 | 0.00 | 90 | 1008.4 |
| 20260510070552 | 17 | 109 | 0.0 | 0.0 | 0.00 | 0.05 | 0.00 | 90 | 1008.4 |
| 20260510070049 | 17 | 109 | 0.0 | 0.0 | 0.00 | 0.05 | 0.00 | 90 | 1008.3 |
| 20260510065507 | 17 | 109 | 0.0 | 0.0 | 0.00 | 0.05 | 0.00 | 90 | 1008.4 |
| 20260510065020 | 17 | 109 | 0.0 | 0.0 | 0.00 | 0.05 | 0.00 | 90 | 1008.3 |
| 20260510064531 | 17 | 109 | 0.0 | 0.0 | 0.00 | 0.05 | 0.00 | 90 | 1008.3 |
| 20260510064040 | 17 | 109 | 0.0 | 1.6 | 0.00 | 0.05 | 0.00 | 89 | 1008.2 |
| 20260510063554 | 18 | 109 | 0.0 | 0.0 | 0.00 | 0.05 | 0.00 | 89 | 1008.2 |
| 20260510063009 | 18 | 109 | 0.0 | 0.0 | 0.00 | 0.05 | 0.00 | 89 | 1008.2 |
| 20260510062522 | 18 | 109 | 0.0 | 0.0 | 0.00 | 0.05 | 0.00 | 89 | 1008.2 |
| 20260510062035 | 18 | 109 | 0.0 | 0.0 | 0.00 | 0.05 | 0.00 | 88 | 1008.3 |
| 20260510061547 | 18 | 109 | 0.0 | 0.0 | 0.00 | 0.05 | 0.00 | 88 | 1008.4 |
| 20260510061058 | 18 | 109 | 0.0 | 0.0 | 0.00 | 0.05 | 0.00 | 88 | 1008.4 |
| 20260510061005 | 18 | 109 | 0.0 | 0.0 | 0.00 | 0.05 | 0.00 | 88 | 1008.4 |
| 20260510060516 | 18 | 109 | 0.0 | 0.0 | 0.00 | 0.05 | 0.00 | 88 | 1008.4 |
| 20260510060012 | 18 | 109 | 0.0 | 0.0 | 0.00 | 0.05 | 0.00 | 87 | 1008.4 |
| 20260510055518 | 18 | 109 | 0.0 | 0.0 | 0.00 | 0.05 | 0.00 | 87 | 1008.4 |
| 20260510055034 | 18 | 109 | 0.0 | 0.0 | 0.00 | 0.05 | 0.00 | 87 | 1008.4 |
| 20260510054546 | 18 | 109 | 0.0 | 0.0 | 0.00 | 0.05 | 0.00 | 86 | 1008.4 |
| 20260510054100 | 18 | 109 | 0.0 | 0.0 | 0.00 | 0.05 | 0.00 | 86 | 1008.3 |
| 20260510054003 | 18 | 109 | 0.0 | 0.0 | 0.00 | 0.05 | 0.00 | 86 | 1008.3 |
| 20260510053516 | 19 | 109 | 0.0 | 0.0 | 0.00 | 0.05 | 0.00 | 86 | 1008.4 |
| 20260510053030 | 19 | 109 | 0.0 | 0.0 | 0.00 | 0.05 | 0.00 | 85 | 1008.3 |
| 20260510052540 | 19 | 109 | 0.0 | 0.0 | 0.00 | 0.05 | 0.00 | 84 | 1008.3 |
| 20260510052057 | 19 | 109 | 0.0 | 0.0 | 0.00 | 0.05 | 0.00 | 85 | 1008.3 |
| 20260510051506 | 19 | 109 | 0.0 | 0.0 | 0.00 | 0.05 | 0.00 | 85 | 1008.3 |
| 20260510051023 | 20 | 109 | 0.0 | 0.0 | 0.00 | 0.05 | 0.00 | 85 | 1008.2 |
| 20260510050535 | 20 | 109 | 0.0 | 0.0 | 0.00 | 0.05 | 0.00 | 84 | 1008.1 |
| 20260510050031 | 20 | 109 | 0.0 | 0.0 | 0.00 | 0.05 | 0.05 | 84 | 1008.0 |
| 20260510045536 | 20 | 109 | 0.0 | 0.0 | 0.00 | 0.05 | 0.05 | 83 | 1008.0 |
| 20260510045050 | 20 | 109 | 0.0 | 0.0 | 0.00 | 0.05 | 0.05 | 83 | 1008.0 |
| 20260510044618 | 20 | 109 | 0.0 | 0.0 | 0.00 | 0.05 | 0.05 | 82 | 1008.0 |
| 20260510044505 | 20 | 109 | 0.0 | 0.0 | 0.00 | 0.05 | 0.05 | 81 | 1008.0 |
| 20260510044017 | 20 | 109 | 0.0 | 0.0 | 0.00 | 0.05 | 0.05 | 81 | 1008.0 |
| 20260510043532 | 20 | 109 | 0.0 | 0.0 | 0.00 | 0.05 | 0.05 | 80 | 1008.0 |
| 20260510043044 | 21 | 109 | 0.0 | 0.0 | 0.00 | 0.05 | 0.05 | 80 | 1008.0 |
| 20260510042559 | 21 | 109 | 0.0 | 0.0 | 0.00 | 0.05 | 0.05 | 80 | 1008.0 |
| 20260510042502 | 21 | 109 | 0.0 | 0.0 | 0.00 | 0.05 | 0.05 | 80 | 1008.0 |
| 20260510042011 | 21 | 109 | 0.0 | 0.0 | 0.00 | 0.05 | 0.05 | 80 | 1008.0 |
| 20260510041527 | 21 | 109 | 0.0 | 0.0 | 0.00 | 0.05 | 0.05 | 79 | 1007.9 |
| 20260510041039 | 21 | 109 | 0.0 | 0.0 | 0.00 | 0.05 | 0.05 | 78 | 1007.9 |
| 20260510040557 | 21 | 109 | 0.0 | 0.0 | 0.00 | 0.05 | 0.05 | 78 | 1007.9 |
| 20260510040050 | 21 | 109 | 0.0 | 0.0 | 0.00 | 0.05 | 0.05 | 77 | 1007.9 |
| 20260510035559 | 21 | 109 | 0.0 | 0.0 | 0.00 | 0.05 | 0.05 | 76 | 1007.8 |
| 20260510035502 | 22 | 109 | 0.0 | 0.0 | 0.00 | 0.05 | 0.05 | 76 | 1007.8 |
| 20260510035019 | 22 | 109 | 0.0 | 0.0 | 0.00 | 0.05 | 0.05 | 76 | 1007.8 |
| 20260510034531 | 22 | 109 | 0.0 | 0.0 | 0.00 | 0.05 | 0.05 | 77 | 1007.9 |
| 20260510034046 | 22 | 109 | 0.0 | 0.0 | 0.00 | 0.05 | 0.05 | 76 | 1007.9 |
| 20260510033602 | 22 | 109 | 0.0 | 0.0 | 0.00 | 0.05 | 0.05 | 75 | 1007.8 |
| 20260510033505 | 22 | 109 | 0.0 | 0.0 | 0.00 | 0.05 | 0.05 | 75 | 1007.8 |
| 20260510033015 | 23 | 109 | 0.0 | 0.0 | 0.00 | 0.05 | 0.05 | 76 | 1007.7 |
| 20260510032527 | 23 | 109 | 0.0 | 0.0 | 0.00 | 0.05 | 0.05 | 74 | 1007.6 |
| 20260510032041 | 23 | 109 | 0.0 | 0.0 | 0.00 | 0.05 | 0.05 | 73 | 1007.6 |
| 20260510031554 | 23 | 109 | 0.0 | 0.0 | 0.00 | 0.05 | 0.05 | 73 | 1007.6 |
| 20260510031013 | 23 | 109 | 0.0 | 0.0 | 0.00 | 0.05 | 0.05 | 72 | 1007.5 |
| 20260510030523 | 24 | 109 | 0.0 | 0.0 | 0.00 | 0.05 | 0.05 | 70 | 1007.5 |
| 20260510030023 | 24 | 109 | 0.0 | 0.0 | 0.00 | 0.05 | 0.05 | 71 | 1007.3 |
| 20260510025538 | 24 | 109 | 0.0 | 1.6 | 0.00 | 0.05 | 0.05 | 71 | 1007.2 |
| 20260510025051 | 24 | 109 | 0.0 | 1.6 | 0.00 | 0.05 | 0.05 | 70 | 1007.1 |
| 20260510024508 | 25 | 109 | 0.0 | 1.6 | 0.00 | 0.05 | 0.05 | 69 | 1007.1 |
| 20260510024019 | 25 | 109 | 0.0 | 1.6 | 0.00 | 0.05 | 0.05 | 68 | 1007.0 |
| 20260510023535 | 25 | 109 | 0.0 | 1.6 | 0.00 | 0.05 | 0.05 | 67 | 1007.0 |
| 20260510023047 | 25 | 109 | 0.0 | 0.0 | 0.00 | 0.05 | 0.05 | 65 | 1007.0 |
| 20260510022559 | 25 | 109 | 0.0 | 0.0 | 0.00 | 0.05 | 0.05 | 65 | 1007.0 |
| 20260510022503 | 25 | 109 | 0.0 | 0.0 | 0.00 | 0.05 | 0.05 | 65 | 1006.9 |
| 20260510022014 | 25 | 109 | 0.0 | 1.6 | 0.00 | 0.05 | 0.05 | 64 | 1006.9 |
| 20260510021532 | 26 | 109 | 0.0 | 1.6 | 0.00 | 0.05 | 0.05 | 63 | 1006.9 |
| 20260510021043 | 26 | 109 | 0.0 | 1.6 | 0.00 | 0.05 | 0.05 | 63 | 1006.8 |
| 20260510020559 | 26 | 109 | 0.0 | 1.6 | 0.00 | 0.05 | 0.05 | 62 | 1006.8 |
| 20260510020503 | 26 | 109 | 0.0 | 1.6 | 0.00 | 0.05 | 0.05 | 62 | 1006.8 |
| 20260510020057 | 26 | 109 | 0.0 | 3.2 | 0.00 | 0.05 | 0.05 | 61 | 1006.7 |
| 20260510015508 | 26 | 112 | 0.0 | 3.2 | 0.00 | 0.05 | 0.05 | 61 | 1006.7 |
| 20260510015023 | 26 | 113 | 0.0 | 3.2 | 0.00 | 0.05 | 0.05 | 60 | 1006.6 |
| 20260510014536 | 26 | 113 | 0.0 | 6.4 | 0.00 | 0.05 | 0.05 | 59 | 1006.5 |
| 20260510014051 | 27 | 116 | 0.0 | 6.4 | 0.00 | 0.05 | 0.05 | 58 | 1006.4 |
| 20260510013508 | 27 | 111 | 0.0 | 9.7 | 0.00 | 0.05 | 0.05 | 57 | 1006.3 |
| 20260510013021 | 27 | 109 | 1.6 | 9.7 | 0.00 | 0.05 | 0.05 | 57 | 1006.3 |
| 20260510012528 | 27 | 103 | 1.6 | 11.3 | 0.00 | 0.05 | 0.05 | 56 | 1006.2 |
| 20260510012047 | 27 | 118 | 4.8 | 11.3 | 0.00 | 0.05 | 0.05 | 56 | 1006.2 |
| 20260510011555 | 28 | 119 | 1.6 | 6.4 | 0.00 | 0.05 | 0.05 | 56 | 1006.2 |
| 20260510011012 | 28 | 117 | 1.6 | 6.4 | 0.00 | 0.05 | 0.05 | 57 | 1006.0 |
| 20260510010526 | 28 | 129 | 0.0 | 6.4 | 0.00 | 0.05 | 0.05 | 58 | 1006.0 |
| 20260510010021 | 28 | 129 | 1.6 | 6.4 | 0.00 | 0.05 | 0.05 | 58 | 1005.9 |
| 20260510005537 | 28 | 126 | 1.6 | 6.4 | 0.00 | 0.05 | 0.05 | 59 | 1005.8 |
| 20260510005046 | 29 | 130 | 1.6 | 12.9 | 0.00 | 0.05 | 0.05 | 59 | 1005.8 |
| 20260510004506 | 29 | 105 | 3.2 | 12.9 | 0.00 | 0.05 | 0.05 | 58 | 1005.7 |
| 20260510004021 | 29 | 123 | 6.4 | 14.5 | 0.00 | 0.05 | 0.05 | 58 | 1005.6 |
| 20260510003534 | 29 | 115 | 6.4 | 14.5 | 0.00 | 0.05 | 0.05 | 58 | 1005.6 |
| 20260510003045 | 30 | 147 | 3.2 | 9.7 | 0.00 | 0.05 | 0.05 | 58 | 1005.5 |
| 20260510002600 | 30 | 134 | 3.2 | 8.0 | 0.00 | 0.05 | 0.05 | 59 | 1005.5 |
| 20260510002504 | 30 | 134 | 1.6 | 9.7 | 0.00 | 0.05 | 0.05 | 59 | 1005.5 |
| 20260510002014 | 30 | 135 | 3.2 | 11.3 | 0.00 | 0.05 | 0.05 | 58 | 1005.5 |
| 20260510001531 | 30 | 113 | 4.8 | 14.5 | 0.00 | 0.05 | 0.05 | 58 | 1005.4 |
| 20260510001041 | 30 | 119 | 6.4 | 14.5 | 0.00 | 0.05 | 0.05 | 57 | 1005.3 |
| 20260510000556 | 30 | 115 | 1.6 | 8.0 | 0.00 | 0.05 | 0.05 | 57 | 1005.2 |
| 20260510000053 | 30 | 136 | 1.6 | 12.9 | 0.00 | 0.05 | 0.05 | 57 | 1005.2 |
| 20260509235510 | 30 | 136 | 4.8 | 12.9 | 0.00 | 0.05 | 0.05 | 56 | 1005.2 |
| 20260509235020 | 30 | 102 | 1.6 | 11.3 | 0.00 | 0.05 | 0.05 | 57 | 1005.1 |
| 20260509234540 | 30 | 113 | 1.6 | 16.1 | 0.00 | 0.05 | 0.05 | 57 | 1005.1 |
| 20260509234048 | 30 | 123 | 6.4 | 16.1 | 0.00 | 0.05 | 0.05 | 56 | 1005.2 |
| 20260509233504 | 30 | 116 | 6.4 | 16.1 | 0.00 | 0.05 | 0.05 | 57 | 1005.2 |
| 20260509233014 | 30 | 102 | 1.6 | 12.9 | 0.00 | 0.05 | 0.05 | 57 | 1005.2 |
| 20260509232529 | 30 | 123 | 4.8 | 14.5 | 0.00 | 0.05 | 0.05 | 57 | 1005.2 |
| 20260509232041 | 30 | 125 | 6.4 | 14.5 | 0.00 | 0.05 | 0.05 | 56 | 1005.2 |
| 20260509231556 | 30 | 138 | 6.4 | 14.5 | 0.00 | 0.05 | 0.05 | 57 | 1005.2 |
| 20260509231012 | 30 | 149 | 4.8 | 19.3 | 0.00 | 0.05 | 0.05 | 57 | 1005.2 |
| 20260509230522 | 30 | 135 | 6.4 | 17.7 | 0.00 | 0.05 | 0.05 | 58 | 1005.1 |
| 20260509230016 | 30 | 122 | 9.7 | 16.1 | 0.00 | 0.05 | 0.05 | 58 | 1005.2 |
| 20260509225526 | 30 | 113 | 4.8 | 14.5 | 0.00 | 0.05 | 0.05 | 59 | 1005.1 |
| 20260509225043 | 30 | 110 | 3.2 | 22.5 | 0.00 | 0.05 | 0.05 | 58 | 1005.2 |
| 20260509224559 | 30 | 105 | 11.3 | 22.5 | 0.00 | 0.05 | 0.05 | 57 | 1005.1 |
| 20260509224012 | 30 | 103 | 4.8 | 25.7 | 0.00 | 0.05 | 0.05 | 56 | 1005.1 |
| 20260509223522 | 31 | 93 | 12.9 | 25.7 | 0.00 | 0.05 | 0.05 | 53 | 1005.1 |
| 20260509223036 | 32 | 114 | 11.3 | 19.3 | 0.00 | 0.05 | 0.05 | 52 | 1005.0 |
| 20260509222551 | 32 | 132 | 1.6 | 6.4 | 0.00 | 0.05 | 0.05 | 51 | 1005.0 |
| 20260509222006 | 32 | 37 | 1.6 | 4.8 | 0.00 | 0.05 | 0.05 | 49 | 1005.0 |
| 20260509221516 | 32 | 38 | 0.0 | 4.8 | 0.00 | 0.05 | 0.05 | 48 | 1005.0 |
| 20260509221035 | 32 | 344 | 0.0 | 4.8 | 0.00 | 0.05 | 0.05 | 52 | 1004.9 |
| 20260509220548 | 32 | 306 | 0.0 | 11.3 | 0.00 | 0.05 | 0.05 | 50 | 1005.0 |
| 20260509220041 | 32 | 257 | 6.4 | 11.3 | 0.00 | 0.05 | 0.05 | 49 | 1005.0 |
| 20260509215555 | 32 | 5 | 1.6 | 8.0 | 0.00 | 0.05 | 0.05 | 49 | 1005.1 |
| 20260509215008 | 33 | 46 | 0.0 | 8.0 | 0.00 | 0.05 | 0.05 | 49 | 1005.1 |
| 20260509214521 | 33 | 355 | 1.6 | 8.0 | 0.00 | 0.05 | 0.05 | 47 | 1005.2 |
| 20260509214030 | 32 | 189 | 1.6 | 9.7 | 0.00 | 0.05 | 0.05 | 49 | 1005.2 |
| 20260509213544 | 32 | 59 | 1.6 | 6.4 | 0.00 | 0.05 | 0.05 | 48 | 1005.4 |
| 20260509213119 | 32 | 24 | 1.6 | 8.0 | 0.00 | 0.05 | 0.05 | 49 | 1005.4 |
| 20260509212509 | 32 | 267 | 0.0 | 11.3 | 0.00 | 0.05 | 0.05 | 52 | 1005.4 |
| 20260509212022 | 32 | 344 | 1.6 | 16.1 | 0.00 | 0.05 | 0.05 | 49 | 1005.5 |
| 20260509211538 | 32 | 281 | 3.2 | 16.1 | 0.00 | 0.05 | 0.05 | 51 | 1005.4 |
| 20260509211048 | 32 | 241 | 4.8 | 8.0 | 0.00 | 0.05 | 0.05 | 53 | 1005.5 |
| 20260509210504 | 32 | 232 | 0.0 | 16.1 | 0.00 | 0.05 | 0.05 | 55 | 1005.5 |
| 20260509210104 | 32 | 355 | 4.8 | 16.1 | 0.00 | 0.05 | 0.05 | 54 | 1005.5 |
| 20260509205511 | 31 | 315 | 4.8 | 11.3 | 0.00 | 0.05 | 0.05 | 54 | 1005.5 |
| 20260509205028 | 31 | 76 | 1.6 | 8.0 | 0.00 | 0.05 | 0.05 | 52 | 1005.6 |
| 20260509204541 | 31 | 306 | 3.2 | 8.0 | 0.00 | 0.05 | 0.05 | 52 | 1005.8 |
| 20260509204056 | 31 | 68 | 3.2 | 8.0 | 0.00 | 0.05 | 0.05 | 54 | 1005.9 |
| 20260509203509 | 31 | 159 | 0.0 | 11.3 | 0.00 | 0.05 | 0.05 | 52 | 1006.0 |
| 20260509203036 | 31 | 195 | 1.6 | 11.3 | 0.00 | 0.05 | 0.05 | 54 | 1006.0 |
| 20260509202539 | 31 | 254 | 1.6 | 17.7 | 0.00 | 0.05 | 0.05 | 53 | 1006.0 |
| 20260509202054 | 31 | 209 | 4.8 | 17.7 | 0.00 | 0.05 | 0.05 | 53 | 1006.0 |
| 20260509201510 | 31 | 252 | 1.6 | 14.5 | 0.00 | 0.05 | 0.05 | 59 | 1006.1 |
| 20260509201025 | 31 | 269 | 4.8 | 14.5 | 0.00 | 0.05 | 0.05 | 56 | 1006.2 |
| 20260509200533 | 31 | 204 | 0.0 | 19.3 | 0.00 | 0.05 | 0.05 | 60 | 1006.3 |
| 20260509200031 | 31 | 278 | 8.0 | 19.3 | 0.00 | 0.05 | 0.05 | 51 | 1006.4 |
| 20260509195548 | 31 | 279 | 0.0 | 11.3 | 0.00 | 0.05 | 0.05 | 57 | 1006.4 |
| 20260509195055 | 31 | 231 | 3.2 | 11.3 | 0.00 | 0.05 | 0.05 | 62 | 1006.5 |
| 20260509194518 | 31 | 305 | 0.0 | 11.3 | 0.00 | 0.05 | 0.05 | 59 | 1006.6 |
| 20260509194026 | 31 | 227 | 3.2 | 12.9 | 0.00 | 0.05 | 0.05 | 57 | 1006.6 |
| 20260509193543 | 31 | 146 | 4.8 | 19.3 | 0.00 | 0.05 | 0.05 | 61 | 1006.6 |
| 20260509193052 | 31 | 213 | 6.4 | 19.3 | 0.00 | 0.05 | 0.05 | 60 | 1006.6 |
| 20260509192509 | 31 | 313 | 1.6 | 17.7 | 0.00 | 0.05 | 0.05 | 59 | 1006.8 |
| 20260509192022 | 31 | 267 | 4.8 | 17.7 | 0.00 | 0.05 | 0.05 | 62 | 1006.9 |
| 20260509191540 | 31 | 269 | 6.4 | 12.9 | 0.00 | 0.05 | 0.05 | 61 | 1007.0 |
| 20260509191048 | 30 | 227 | 4.8 | 14.5 | 0.00 | 0.05 | 0.05 | 62 | 1007.0 |
| 20260509190503 | 30 | 234 | 6.4 | 14.5 | 0.00 | 0.05 | 0.05 | 63 | 1007.2 |
| 20260509190052 | 29 | 219 | 0.0 | 9.7 | 0.00 | 0.05 | 0.05 | 69 | 1007.4 |
| 20260509185507 | 28 | 221 | 1.6 | 6.4 | 0.00 | 0.05 | 0.05 | 68 | 1007.6 |
| 20260509185018 | 28 | 240 | 1.6 | 6.4 | 0.00 | 0.05 | 0.05 | 67 | 1007.7 |
| 20260509184549 | 28 | 360 | 3.2 | 6.4 | 0.00 | 0.05 | 0.05 | 67 | 1007.7 |
| 20260509184045 | 28 | 317 | 1.6 | 12.9 | 0.00 | 0.05 | 0.05 | 67 | 1007.8 |
| 20260509183559 | 28 | 289 | 3.2 | 12.9 | 0.00 | 0.05 | 0.05 | 67 | 1007.9 |
| 20260509183501 | 28 | 292 | 3.2 | 14.5 | 0.00 | 0.05 | 0.05 | 67 | 1007.9 |
| 20260509183018 | 29 | 265 | 4.8 | 14.5 | 0.00 | 0.05 | 0.05 | 68 | 1007.9 |
| 20260509182534 | 29 | 214 | 8.0 | 17.7 | 0.00 | 0.05 | 0.05 | 66 | 1007.9 |
| 20260509182047 | 29 | 208 | 9.7 | 17.7 | 0.00 | 0.05 | 0.05 | 66 | 1007.9 |
| 20260509181601 | 29 | 225 | 3.2 | 12.9 | 0.00 | 0.05 | 0.05 | 69 | 1007.9 |
| 20260509181015 | 28 | 196 | 8.0 | 14.5 | 0.00 | 0.05 | 0.05 | 69 | 1007.9 |
| 20260509180523 | 28 | 211 | 6.4 | 12.9 | 0.00 | 0.05 | 0.05 | 70 | 1008.0 |
| 20260509180017 | 28 | 213 | 3.2 | 14.5 | 0.00 | 0.05 | 0.05 | 71 | 1008.0 |
| 20260509175530 | 28 | 254 | 1.6 | 12.9 | 0.00 | 0.05 | 0.05 | 71 | 1008.1 |
| 20260509175041 | 27 | 231 | 6.4 | 12.9 | 0.00 | 0.05 | 0.05 | 73 | 1008.1 |
| 20260509174551 | 27 | 192 | 3.2 | 17.7 | 0.00 | 0.05 | 0.05 | 74 | 1008.2 |
| 20260509174009 | 27 | 245 | 9.7 | 17.7 | 0.00 | 0.05 | 0.05 | 74 | 1008.2 |
| 20260509173520 | 27 | 224 | 8.0 | 14.5 | 0.00 | 0.05 | 0.05 | 75 | 1008.3 |
| 20260509173039 | 27 | 260 | 4.8 | 16.1 | 0.00 | 0.05 | 0.05 | 74 | 1008.4 |
| 20260509172544 | 27 | 253 | 8.0 | 17.7 | 0.00 | 0.05 | 0.05 | 76 | 1008.5 |
| 20260509172056 | 27 | 251 | 8.0 | 17.7 | 0.00 | 0.05 | 0.05 | 77 | 1008.5 |
| 20260509171511 | 27 | 252 | 8.0 | 17.7 | 0.00 | 0.05 | 0.05 | 77 | 1008.5 |
| 20260509171023 | 27 | 202 | 6.4 | 12.9 | 0.00 | 0.05 | 0.05 | 80 | 1008.4 |
| 20260509170533 | 26 | 242 | 6.4 | 12.9 | 0.00 | 0.05 | 0.05 | 80 | 1008.5 |
| 20260509170032 | 26 | 169 | 6.4 | 14.5 | 0.00 | 0.05 | 0.05 | 82 | 1008.5 |
| 20260509165541 | 26 | 225 | 9.7 | 14.5 | 0.00 | 0.05 | 0.05 | 83 | 1008.7 |
| 20260509165051 | 25 | 274 | 8.0 | 20.9 | 0.00 | 0.05 | 0.05 | 84 | 1008.8 |
| 20260509164507 | 25 | 302 | 4.8 | 20.9 | 0.00 | 0.05 | 0.05 | 84 | 1008.8 |
| 20260509164023 | 25 | 276 | 4.8 | 12.9 | 0.00 | 0.05 | 0.05 | 84 | 1008.8 |
| 20260509163534 | 25 | 281 | 8.0 | 12.9 | 0.00 | 0.05 | 0.05 | 84 | 1008.9 |
| 20260509163045 | 25 | 222 | 4.8 | 12.9 | 0.00 | 0.05 | 0.05 | 86 | 1008.8 |
| 20260509162559 | 25 | 219 | 3.2 | 16.1 | 0.00 | 0.05 | 0.05 | 88 | 1008.8 |
| 20260509162501 | 25 | 213 | 0.0 | 16.1 | 0.00 | 0.05 | 0.05 | 87 | 1008.7 |
| 20260509162020 | 25 | 225 | 11.3 | 16.1 | 0.00 | 0.05 | 0.05 | 89 | 1008.8 |
| 20260509161533 | 24 | 248 | 6.4 | 14.5 | 0.00 | 0.05 | 0.05 | 90 | 1008.9 |
| 20260509161037 | 24 | 226 | 6.4 | 14.5 | 0.00 | 0.05 | 0.05 | 93 | 1008.9 |
| 20260509160555 | 23 | 219 | 4.8 | 12.9 | 0.00 | 0.05 | 0.05 | 94 | 1009.0 |
| 20260509160043 | 23 | 188 | 4.8 | 11.3 | 0.00 | 0.05 | 0.05 | 95 | 1009.1 |
| 20260509155558 | 23 | 142 | 8.0 | 11.3 | 0.00 | 0.05 | 0.05 | 96 | 1009.0 |
| 20260509155014 | 23 | 210 | 6.4 | 11.3 | 0.00 | 0.05 | 0.05 | 96 | 1009.0 |
| 20260509154523 | 23 | 162 | 6.4 | 11.3 | 0.00 | 0.05 | 0.05 | 97 | 1009.3 |
| 20260509154040 | 22 | 138 | 0.0 | 11.3 | 0.00 | 0.05 | 0.05 | 97 | 1009.3 |
| 20260509153550 | 22 | 192 | 1.6 | 6.4 | 0.00 | 0.05 | 0.05 | 97 | 1009.2 |
| 20260509153007 | 22 | 136 | 4.8 | 11.3 | 0.00 | 0.05 | 0.05 | 97 | 1009.3 |
| 20260509152518 | 22 | 184 | 8.0 | 11.3 | 0.00 | 0.05 | 0.05 | 96 | 1009.3 |
| 20260509152033 | 22 | 171 | 4.8 | 14.5 | 0.00 | 0.05 | 0.05 | 97 | 1009.3 |
| 20260509151550 | 22 | 180 | 8.0 | 14.5 | 0.00 | 0.05 | 0.05 | 97 | 1009.2 |
| 20260509151004 | 22 | 161 | 9.7 | 14.5 | 0.00 | 0.05 | 0.05 | 97 | 1009.1 |
| 20260509150517 | 22 | 87 | 4.8 | 12.9 | 0.00 | 0.05 | 0.05 | 97 | 1009.1 |
| 20260509150013 | 22 | 171 | 4.8 | 14.5 | 0.00 | 0.05 | 0.05 | 97 | 1009.1 |
| 20260509145523 | 22 | 140 | 6.4 | 14.5 | 0.00 | 0.05 | 0.05 | 97 | 1008.8 |
| 20260509145036 | 22 | 154 | 6.4 | 11.3 | 0.00 | 0.05 | 0.05 | 97 | 1008.6 |
| 20260509144552 | 22 | 152 | 3.2 | 11.3 | 0.00 | 0.05 | 0.05 | 97 | 1008.7 |
| 20260509144004 | 22 | 132 | 4.8 | 11.3 | 0.00 | 0.05 | 0.05 | 97 | 1008.6 |
| 20260509143516 | 22 | 110 | 3.2 | 6.4 | 0.00 | 0.05 | 0.05 | 97 | 1008.5 |
| 20260509143031 | 22 | 88 | 1.6 | 8.0 | 0.00 | 0.05 | 0.05 | 97 | 1008.4 |
| 20260509142542 | 22 | 162 | 3.2 | 9.7 | 0.00 | 0.05 | 0.05 | 97 | 1008.1 |
| 20260509142056 | 22 | 163 | 4.8 | 8.0 | 0.00 | 0.05 | 0.05 | 98 | 1007.9 |
| 20260509141515 | 21 | 132 | 3.2 | 6.4 | 0.00 | 0.05 | 0.05 | 97 | 1008.4 |
| 20260509141023 | 21 | 50 | 0.0 | 3.2 | 0.00 | 0.05 | 0.05 | 97 | 1008.5 |
| 20260509140539 | 21 | 24 | 0.0 | 3.2 | 0.00 | 0.05 | 0.05 | 97 | 1008.7 |
| 20260509140028 | 21 | 5 | 0.0 | 4.8 | 0.00 | 0.05 | 0.05 | 97 | 1008.8 |
| 20260509135544 | 21 | 5 | 1.6 | 3.2 | 0.00 | 0.05 | 0.05 | 97 | 1008.9 |
| 20260509135054 | 21 | 5 | 0.0 | 4.8 | 0.00 | 0.05 | 0.05 | 97 | 1008.8 |
| 20260509134513 | 21 | 5 | 1.6 | 4.8 | 0.00 | 0.05 | 0.05 | 97 | 1008.8 |
| 20260509134022 | 21 | 94 | 0.0 | 3.2 | 0.00 | 0.05 | 0.05 | 97 | 1008.8 |
| 20260509133536 | 21 | 92 | 0.0 | 1.6 | 0.00 | 0.05 | 0.05 | 97 | 1008.7 |
| 20260509133052 | 21 | 92 | 0.0 | 1.6 | 0.00 | 0.05 | 0.05 | 97 | 1008.8 |
| 20260509132513 | 21 | 92 | 0.0 | 1.6 | 0.00 | 0.05 | 0.05 | 97 | 1008.8 |
| 20260509132035 | 21 | 92 | 0.0 | 3.2 | 0.00 | 0.05 | 0.05 | 97 | 1008.7 |
| 20260509131543 | 21 | 92 | 1.6 | 4.8 | 0.00 | 0.05 | 0.05 | 97 | 1008.7 |
| 20260509131058 | 21 | 92 | 1.6 | 4.8 | 0.00 | 0.05 | 0.05 | 97 | 1008.6 |
| 20260509130510 | 21 | 125 | 0.0 | 4.8 | 0.00 | 0.05 | 0.05 | 97 | 1008.6 |
| 20260509130004 | 21 | 125 | 0.0 | 4.8 | 0.00 | 0.05 | 0.05 | 97 | 1008.4 |
| 20260509125516 | 21 | 122 | 0.0 | 4.8 | 0.00 | 0.05 | 0.05 | 97 | 1008.3 |
| 20260509125029 | 21 | 28 | 0.0 | 6.4 | 0.00 | 0.05 | 0.05 | 97 | 1008.4 |
| 20260509124541 | 21 | 28 | 1.6 | 8.0 | 0.00 | 0.05 | 0.05 | 97 | 1008.5 |
| 20260509124056 | 21 | 27 | 3.2 | 8.0 | 0.00 | 0.05 | 0.05 | 97 | 1008.5 |
| 20260509123510 | 21 | 20 | 3.2 | 8.0 | 0.00 | 0.05 | 0.05 | 97 | 1008.4 |
| 20260509123026 | 21 | 40 | 1.6 | 8.0 | 0.00 | 0.05 | 0.05 | 97 | 1008.2 |
| 20260509122536 | 21 | 340 | 1.6 | 6.4 | 0.00 | 0.05 | 0.05 | 97 | 1008.2 |
| 20260509122049 | 21 | 19 | 3.2 | 8.0 | 0.00 | 0.05 | 0.05 | 97 | 1008.1 |
| 20260509121505 | 21 | 59 | 3.2 | 9.7 | 0.00 | 0.05 | 0.05 | 97 | 1008.1 |
| 20260509121020 | 21 | 350 | 3.2 | 9.7 | 0.00 | 0.05 | 0.05 | 97 | 1008.1 |
| 20260509120531 | 21 | 52 | 4.8 | 8.0 | 0.00 | 0.05 | 0.05 | 97 | 1008.2 |
| 20260509120036 | 21 | 60 | 3.2 | 9.7 | 0.00 | 0.05 | 0.05 | 96 | 1008.4 |
| 20260509115542 | 21 | 5 | 4.8 | 12.9 | 0.00 | 0.05 | 0.05 | 96 | 1008.6 |
| 20260509115055 | 21 | 344 | 4.8 | 12.9 | 0.00 | 0.05 | 0.05 | 96 | 1008.8 |
| 20260509114515 | 21 | 18 | 3.2 | 8.0 | 0.00 | 0.05 | 0.05 | 96 | 1008.9 |
| 20260509114028 | 21 | 44 | 1.6 | 6.4 | 0.00 | 0.05 | 0.05 | 96 | 1008.9 |
| 20260509113543 | 21 | 51 | 3.2 | 6.4 | 0.00 | 0.05 | 0.05 | 96 | 1008.9 |
| 20260509113057 | 21 | 40 | 3.2 | 6.4 | 0.00 | 0.05 | 0.05 | 96 | 1009.0 |
| 20260509112515 | 21 | 27 | 3.2 | 6.4 | 0.00 | 0.05 | 0.05 | 96 | 1009.1 |
| 20260509112026 | 21 | 63 | 1.6 | 9.7 | 0.00 | 0.05 | 0.05 | 96 | 1009.1 |
| 20260509111542 | 21 | 45 | 4.8 | 14.5 | 0.00 | 0.05 | 0.05 | 96 | 1009.1 |
| 20260509111053 | 21 | 24 | 6.4 | 14.5 | 0.00 | 0.05 | 0.05 | 96 | 1009.1 |
| 20260509110509 | 21 | 13 | 3.2 | 12.9 | 0.00 | 0.05 | 0.05 | 96 | 1009.3 |
| 20260509110006 | 21 | 5 | 4.8 | 9.7 | 0.03 | 0.05 | 0.05 | 96 | 1009.4 |
| 20260509105515 | 21 | 30 | 4.8 | 12.9 | 0.03 | 0.05 | 0.05 | 96 | 1009.2 |
| 20260509105034 | 21 | 13 | 4.8 | 12.9 | 0.03 | 0.05 | 0.05 | 96 | 1009.1 |
| 20260509104543 | 21 | 22 | 3.2 | 6.4 | 0.03 | 0.05 | 0.05 | 96 | 1009.0 |
| 20260509104057 | 21 | 23 | 3.2 | 4.8 | 0.03 | 0.05 | 0.05 | 96 | 1008.9 |
| 20260509104002 | 21 | 24 | 1.6 | 4.8 | 0.03 | 0.05 | 0.05 | 96 | 1008.9 |
| 20260509103517 | 21 | 56 | 0.0 | 3.2 | 0.03 | 0.05 | 0.05 | 96 | 1008.8 |
| 20260509103027 | 21 | 56 | 0.0 | 1.6 | 0.03 | 0.05 | 0.05 | 96 | 1008.7 |
| 20260509102546 | 21 | 56 | 0.0 | 1.6 | 0.03 | 0.05 | 0.05 | 96 | 1008.6 |
| 20260509102053 | 21 | 56 | 0.0 | 3.2 | 0.03 | 0.05 | 0.05 | 96 | 1008.5 |
| 20260509101514 | 21 | 56 | 0.0 | 3.2 | 0.03 | 0.05 | 0.05 | 96 | 1008.3 |
| 20260509101024 | 21 | 55 | 0.0 | 1.6 | 0.03 | 0.05 | 0.05 | 96 | 1008.2 |
| 20260509100535 | 21 | 55 | 0.0 | 4.8 | 0.03 | 0.05 | 0.05 | 96 | 1008.2 |
| 20260509100027 | 21 | 55 | 0.0 | 4.8 | 0.03 | 0.03 | 0.03 | 96 | 1008.1 |
| 20260509095541 | 21 | 56 | 0.0 | 3.2 | 0.03 | 0.03 | 0.03 | 96 | 1008.1 |
| 20260509095054 | 21 | 56 | 0.0 | 3.2 | 0.03 | 0.03 | 0.03 | 96 | 1008.0 |
| 20260509094511 | 21 | 56 | 0.0 | 4.8 | 0.03 | 0.03 | 0.03 | 96 | 1008.0 |
| 20260509094023 | 21 | 56 | 1.6 | 4.8 | 0.03 | 0.03 | 0.03 | 96 | 1007.8 |
| 20260509093538 | 21 | 57 | 0.0 | 4.8 | 0.03 | 0.03 | 0.03 | 96 | 1007.7 |
| 20260509093055 | 21 | 57 | 0.0 | 4.8 | 0.03 | 0.03 | 0.03 | 96 | 1007.8 |
| 20260509092512 | 21 | 57 | 1.6 | 3.2 | 0.03 | 0.03 | 0.03 | 96 | 1007.9 |
| 20260509092027 | 21 | 57 | 1.6 | 3.2 | 0.03 | 0.03 | 0.03 | 96 | 1007.7 |
| 20260509091537 | 21 | 57 | 0.0 | 4.8 | 0.03 | 0.03 | 0.03 | 96 | 1007.8 |
| 20260509091054 | 21 | 57 | 1.6 | 4.8 | 0.03 | 0.03 | 0.03 | 96 | 1007.8 |
| 20260509090510 | 21 | 61 | 1.6 | 6.4 | 0.03 | 0.03 | 0.03 | 96 | 1007.9 |
| 20260509090007 | 21 | 57 | 0.0 | 6.4 | 0.00 | 0.00 | 0.00 | 96 | 1007.9 |
| 20260509085520 | 21 | 82 | 1.6 | 3.2 | 0.00 | 0.00 | 0.00 | 96 | 1007.9 |
| 20260509085035 | 21 | 83 | 1.6 | 3.2 | 0.00 | 0.00 | 0.00 | 95 | 1007.9 |
| 20260509084548 | 21 | 108 | 0.0 | 1.6 | 0.00 | 0.00 | 0.00 | 95 | 1007.8 |
| 20260509084009 | 21 | 108 | 0.0 | 3.2 | 0.00 | 0.00 | 0.00 | 95 | 1007.9 |
| 20260509083525 | 21 | 107 | 1.6 | 3.2 | 0.00 | 0.00 | 0.00 | 95 | 1007.8 |
| 20260509083037 | 21 | 107 | 0.0 | 1.6 | 0.00 | 0.00 | 0.00 | 95 | 1008.0 |
| 20260509082553 | 21 | 108 | 0.0 | 3.2 | 0.00 | 0.00 | 0.00 | 95 | 1008.0 |
| 20260509082009 | 21 | 108 | 0.0 | 3.2 | 0.00 | 0.00 | 0.00 | 95 | 1008.2 |
| 20260509081526 | 21 | 108 | 0.0 | 4.8 | 0.00 | 0.00 | 0.00 | 95 | 1008.1 |
| 20260509081039 | 21 | 108 | 0.0 | 4.8 | 0.00 | 0.00 | 0.00 | 95 | 1008.1 |
| 20260509080555 | 21 | 108 | 0.0 | 3.2 | 0.00 | 0.00 | 0.00 | 95 | 1008.1 |
| 20260509080052 | 21 | 108 | 1.6 | 3.2 | 0.00 | 0.00 | 0.00 | 95 | 1008.0 |
| 20260509075505 | 21 | 116 | 0.0 | 3.2 | 0.00 | 0.00 | 0.00 | 95 | 1008.0 |
| 20260509075022 | 21 | 150 | 0.0 | 8.0 | 0.00 | 0.00 | 0.00 | 95 | 1008.0 |
| 20260509074529 | 21 | 150 | 1.6 | 8.0 | 0.00 | 0.00 | 0.00 | 95 | 1007.7 |
| 20260509074049 | 21 | 150 | 1.6 | 4.8 | 0.00 | 0.00 | 0.00 | 95 | 1007.7 |
| 20260509073558 | 21 | 148 | 1.6 | 4.8 | 0.00 | 0.00 | 0.00 | 95 | 1007.9 |
| 20260509073501 | 21 | 148 | 1.6 | 4.8 | 0.00 | 0.00 | 0.00 | 95 | 1007.8 |
| 20260509073025 | 21 | 148 | 0.0 | 3.2 | 0.00 | 0.00 | 0.00 | 95 | 1007.8 |
| 20260509072527 | 21 | 148 | 0.0 | 8.0 | 0.00 | 0.00 | 0.00 | 95 | 1007.8 |
| 20260509072043 | 21 | 148 | 0.0 | 9.7 | 0.00 | 0.00 | 0.00 | 95 | 1007.7 |